Regional Weather Roundup
Issued by NWS Jackson, KY

Home | Current Version | Previous Version | Text Only | Print | Product List | Glossary On
Versions: 1 2 3 4 5 6 7 8 9 10 11 12 13 14 15 16 17 18 19 20 21 22 23 24 25 26 27 28 29 30 31 32 33 34 35 36 37 38 39 40 41 42 43 44 45 46 47 48 49 50
000
ASUS43 KJKL 120810
RWRJKL

EAST KENTUCKY HOURLY WEATHER ROUNDUP
NATIONAL WEATHER SERVICE JACKSON KY
300 AM EST TUE DEC 12 2017

NOTE: "FAIR" INDICATES FEW OR NO CLOUDS BELOW 12,000 FEET WITH
NO SIGNIFICANT WEATHER AND/OR OBSTRUCTIONS TO VISIBILITY.

* THESE REPORTS ARE NOT UNDER NWS QUALITY CONTROL AND MAY NOT
  REPORT WEATHER SUCH AS PRECIPITATION AND FOG.

KYZ079-080-083-085-087-088-110-112-115-119-120-120900
...EASTERN KENTUCKY...

CITY           SKY/WX    TMP DP  RH WIND       PRES   REMARKS
JACKSON        PTCLDY    42  27  55 W13G25    29.79R
LONDON         MOCLDY    43  28  55 W20G29    29.83R
SOMERSET*      CLEAR     41  28  60 W12G18    29.88R
MONTICELLO*    CLOUDY    43  30  60 W15       29.88R
WILLIAMSBURG*  MOSUNNY   45  28  53 W10G17    29.84R
MIDDLESBORO*   CLOUDY    46  28  48 NW9G18    29.84R
HARLAN APT*    CLOUDY    45  27  49 W13       29.81R
PIKE CO APT*   CLOUDY    46  27  48 W9G20     29.76R
BIG SANDY APT* MOSUNNY   46  28  49 W15G23    29.76R
MOREHEAD APT*  CLOUDY    41  28  60 W10G21    29.80R
$$

KYZ035-036-041-042-044-050-067-078-099-120900
...CENTRAL KENTUCKY...

CITY           SKY/WX    TMP DP  RH WIND       PRES   REMARKS
MT STERLING*   MOCLDY    41  30  65 NW10G20   29.82R
FLEMING/MASON* MOCLDY    38  27  64 W18       29.79R WCI  29
DANVILLE*      CLOUDY    41  30  65 NW10G17   29.85S
LEXINGTON      CLOUDY    42  30  62 W18G28    29.82R
FRANKFORT      CLOUDY    42  28  57 W13G20    29.82R
LOUISVILLE     CLOUDY    42  30  62 NW17G31   29.87R
LEBANON*       PTSUNNY   41  32  70 W14       29.86R
GLASGOW*       CLOUDY    43  31  63 NW3       29.90R
BOWLING GREEN  MOCLDY    46  32  58 NW14G25   29.91R
$$

KYZ091>093-OHZ055-061-077-WVZ005-015-034-035-042-120900
...SOUTHERN OHIO/WEST VIRGINIA...

CITY           SKY/WX    TMP DP  RH WIND       PRES   REMARKS
COVINGTON      CLOUDY    37  30  75 NW16      29.80R WCI  28
COLUMBUS       CLOUDY    39  29  67 NW17G24   29.68R WCI  30
DAYTON         CLOUDY    33  31  92 NW15G28   29.76R WCI  23
WILMINGTON     CLOUDY    36  30  79 NW20G28   29.74R WCI  25
HUNTINGTON     MOCLDY    45  26  47 W14G25    29.74R
CHARLESTON     MOCLDY    48  26  42 W13G24    29.71R
PINEVILLE*       N/A     33  30  90 MISG      29.76S
BECKLEY        MOCLDY    42  26  53 W10       29.68F
BLUEFIELD      MOCLDY    41  26  55 W16G23    29.69F
LOGAN CO APT*  CLOUDY    46  28  49 W13       29.71S
$$

VAZ002-007-008-TNZ017-027-036-066-071-120900
...SOUTHWEST VIRGINIA/EAST TENNESSEE...

CITY           SKY/WX    TMP DP  RH WIND       PRES   REMARKS
WISE*          CLOUDY    41  32  70 W9        29.76S
JONESVILLE*    CLOUDY    41  32  70 CALM      29.83R
ABINGDON*      PTCLDY    38  30  73 NW3       29.78S
BRISTOL        MOCLDY    32  31  96 CALM      29.79S
MORRISTOWN*    MOSUNNY   46  32  57 W14       29.81S
SEVIERVILLE*   SUNNY     52  30  43 W12G20    29.82S
KNOXVILLE      CLOUDY    46  36  68 SW10      29.84R
LAFOLLETTE*    SUNNY     48  27  43 CALM      29.87S
OAK RIDGE      CLOUDY    44  35  70 W3        29.86R
CROSSVILLE     CLOUDY    42  26  53 NW8       29.86S
NASHVILLE      PTCLDY    49  29  46 NW12G22   29.92R
$$

...KEY TO REMARKS...
VSB - VISIBILITY IN MILES
WCI - WIND CHILL INDEX
HX  - HEAT INDEX

$$



USA.gov is the U.S. government's official web portal to all federal, state and local government web resources and services.